tititudorancea.com
Station Historical Data
Daily Summary for March 9, 2018 Units:  Metric    English   Both
« Previous Day
Next Day »
Daily Weekly Monthly Yearly Custom
  High: Low: Average:
Temperature: -17.8 °C 10.4 °C 23.3 °C
Dew Point: -17.8 °C 5.2 °C 8 °C
Humidity: Humidity % 17 % 44 %
Wind Speed: 0 km/h 0 km/h 3.4 km/h
Wind Gust: 0 km/h - -
Wind:- - South
Pressure: 0 hPa 1019.5 hPa -
Precipitation: 0 mm    
Historical Graphs
 
 
Ararat weather Find more about Weather in Ararat, AU


 



 


Tabular Data for March 9, 2018
Time Temperature Dew Point Pressure Wind Wind Speed Wind Gust Humidity Rainfall Rate (Hourly)
-17.8 °C -17.8 °C 0 hPa Calm     Humidity % 0 mm
00:00 19.7 °C 10.7 °C 1021.9 hPa SSE 7.1 km/h 7.4 km/h 56 % 0 mm
00:05 19.6 °C 10.6 °C 1021.9 hPa SSE 4.7 km/h 5.6 km/h 56 % 0 mm
00:10 19.6 °C 10.8 °C 1022.2 hPa SSE 2.9 km/h 3.7 km/h 57 % 0 mm
00:15 19.4 °C 10.7 °C 1021.9 hPa SSE 1.6 km/h 3.7 km/h 57 % 0 mm
00:20 19.2 °C 10.5 °C 1021.9 hPa SSE 4.3 km/h 5.6 km/h 57 % 0 mm
00:25 19.1 °C 10.7 °C 1021.9 hPa SSE 1.8 km/h 3.7 km/h 58 % 0 mm
00:30 19.1 °C 10.7 °C 1021.9 hPa SSE 2.6 km/h 3.7 km/h 58 % 0 mm
00:35 18.9 °C 10.5 °C 1021.9 hPa SSE 0.3 km/h 1.9 km/h 58 % 0 mm
00:40 18.8 °C 10.3 °C 1021.9 hPa SSE 4.7 km/h 6.4 km/h 58 % 0 mm
00:45 18.7 °C 10.6 °C 1022.2 hPa SSE 3.4 km/h 5.6 km/h 59 % 0 mm
00:50 18.6 °C 10.4 °C 1021.9 hPa SSE 5.5 km/h 7.4 km/h 59 % 0 mm
00:55 18.5 °C 10.6 °C 1021.9 hPa SSE 5 km/h 8 km/h 60 % 0 mm
01:00 18.5 °C 10.6 °C 1022.2 hPa SSE 5.3 km/h 7.4 km/h 60 % 0 mm
01:05 18.5 °C 10.6 °C 1022.2 hPa SSE 5.1 km/h 6.4 km/h 60 % 0 mm
01:10 18.6 °C 10.6 °C 1022.2 hPa SSE 5.3 km/h 8 km/h 60 % 0 mm
01:15 18.6 °C 10.6 °C 1022.2 hPa SSE 4.7 km/h 5.6 km/h 60 % 0 mm
01:20 18.6 °C 10.6 °C 1021.9 hPa SSE 2.9 km/h 3.7 km/h 60 % 0 mm
01:25 18.6 °C 10.7 °C 1021.9 hPa SSE 5.1 km/h 6.4 km/h 60 % 0 mm
01:30 18.6 °C 10.6 °C 1021.9 hPa SSE 1 km/h 3.7 km/h 60 % 0 mm
01:35 18.5 °C 10.6 °C 1021.9 hPa SSE 1.6 km/h 3.7 km/h 60 % 0 mm
01:40 18.4 °C 10.6 °C 1021.9 hPa SSE 3.7 km/h 6.4 km/h 60 % 0 mm
01:45 18.3 °C 10.6 °C 1021.9 hPa SSE 1.3 km/h 5.6 km/h 61 % 0 mm
01:50 18.2 °C 10.5 °C 1022.2 hPa Calm     61 % 0 mm
01:55 18.1 °C 10.7 °C 1022.2 hPa SSE 0.3 km/h 1.9 km/h 62 % 0 mm
02:00 17.9 °C 10.5 °C 1022.2 hPa SSE 0.8 km/h 3.7 km/h 62 % 0 mm
02:05 17.7 °C 10.6 °C 1022.2 hPa SSE 1.4 km/h 3.7 km/h 63 % 0 mm
02:10 17.6 °C 10.5 °C 1022.2 hPa Calm     63 % 0 mm
02:15 17.6 °C 10.4 °C 1022.2 hPa Calm     63 % 0 mm
02:20 17.5 °C 10.4 °C 1022.2 hPa Calm     63 % 0 mm
02:25 17.2 °C 10.3 °C 1022.2 hPa Calm     64 % 0 mm
02:30 16.9 °C 10.3 °C 1022.2 hPa Calm     65 % 0 mm
02:35 16.7 °C 10.1 °C 1022.2 hPa Calm     65 % 0 mm
02:40 16.4 °C 10.3 °C 1022.2 hPa Calm     67 % 0 mm
02:45 16.3 °C 10.1 °C 1022.2 hPa Calm     67 % 0 mm
02:50 16.2 °C 10.3 °C 1022.2 hPa Calm     68 % 0 mm
02:55 16.1 °C 10.2 °C 1021.9 hPa Calm     68 % 0 mm
02:56 16.1 °C 10.2 °C 1021.9 hPa Calm     68 % 0 mm
03:01 16 °C 10.1 °C 1021.9 hPa Calm     68 % 0 mm
03:06 15.9 °C 10 °C 1021.9 hPa Calm     68 % 0 mm
03:11 15.8 °C 10.1 °C 1021.9 hPa Calm     69 % 0 mm
03:16 15.7 °C 10 °C 1021.9 hPa Calm     69 % 0 mm
03:21 15.5 °C 9.8 °C 1021.9 hPa Calm     69 % 0 mm
03:26 15.3 °C 9.8 °C 1021.9 hPa Calm     70 % 0 mm
03:31 15.1 °C 9.6 °C 1021.9 hPa Calm     70 % 0 mm
03:36 14.9 °C 9.7 °C 1021.9 hPa Calm     71 % 0 mm
03:41 14.7 °C 9.5 °C 1021.9 hPa Calm     71 % 0 mm
03:46 14.5 °C 9.3 °C 1021.9 hPa Calm     71 % 0 mm
03:51 14.3 °C 9.2 °C 1021.9 hPa Calm     71 % 0 mm
03:56 14.1 °C 9.1 °C 1021.9 hPa Calm     72 % 0 mm
04:01 13.9 °C 9 °C 1021.9 hPa Calm     72 % 0 mm
04:06 13.8 °C 8.8 °C 1021.9 hPa Calm     72 % 0 mm
04:11 13.6 °C 8.8 °C 1021.9 hPa Calm     73 % 0 mm
04:16 13.5 °C 8.9 °C 1021.9 hPa Calm     74 % 0 mm
04:21 13.3 °C 9.2 °C 1021.9 hPa Calm     76 % 0 mm
04:26 13.2 °C 9.1 °C 1022.2 hPa Calm     76 % 0 mm
04:31 13.2 °C 9.2 °C 1022.2 hPa Calm     77 % 0 mm
04:36 13.1 °C 9.1 °C 1022.2 hPa Calm     77 % 0 mm
04:41 12.9 °C 9 °C 1022.2 hPa Calm     77 % 0 mm
04:46 12.8 °C 8.9 °C 1022.2 hPa Calm     77 % 0 mm
04:51 12.7 °C 9 °C 1022.2 hPa Calm     78 % 0 mm
04:56 12.6 °C 8.8 °C 1022.2 hPa Calm     78 % 0 mm
05:01 12.4 °C 8.7 °C 1022.2 hPa Calm     78 % 0 mm
05:06 12.3 °C 8.8 °C 1022.2 hPa Calm     79 % 0 mm
05:11 12.3 °C 8.9 °C 1022.2 hPa Calm     80 % 0 mm
05:16 12.1 °C 8.7 °C 1022.2 hPa Calm     80 % 0 mm
05:21 12 °C 8.8 °C 1022.2 hPa Calm     81 % 0 mm
05:26 12.1 °C 9.1 °C 1022.2 hPa Calm     82 % 0 mm
05:31 12 °C 9 °C 1022.2 hPa Calm     82 % 0 mm
05:37 12 °C 9 °C 1022.2 hPa Calm     82 % 0 mm
05:42 11.9 °C 8.9 °C 1022.2 hPa Calm     82 % 0 mm
05:47 11.8 °C 8.8 °C 1022.2 hPa Calm     82 % 0 mm
05:52 11.7 °C 8.7 °C 1022.2 hPa Calm     82 % 0 mm
05:57 11.7 °C 8.7 °C 1022.2 hPa Calm     82 % 0 mm
06:02 11.7 °C 8.9 °C 1022.2 hPa Calm     83 % 0 mm
06:07 11.7 °C 8.9 °C 1022.6 hPa Calm     83 % 0 mm
06:12 11.7 °C 8.9 °C 1022.6 hPa Calm     83 % 0 mm
06:17 11.7 °C 8.9 °C 1022.6 hPa Calm     83 % 0 mm
06:22 11.6 °C 8.8 °C 1022.6 hPa Calm     83 % 0 mm
06:27 11.6 °C 8.8 °C 1022.6 hPa Calm     83 % 0 mm
06:32 11.5 °C 8.7 °C 1022.6 hPa Calm     83 % 0 mm
06:37 11.4 °C 8.7 °C 1022.6 hPa Calm     83 % 0 mm
06:42 11.3 °C 8.6 °C 1022.6 hPa Calm     83 % 0 mm
06:47 11.3 °C 8.5 °C 1022.6 hPa Calm     83 % 0 mm
06:52 11.2 °C 8.4 °C 1022.6 hPa Calm     83 % 0 mm
06:57 11.2 °C 8.4 °C 1022.6 hPa Calm     83 % 0 mm
07:02 11.1 °C 8.3 °C 1022.9 hPa Calm     83 % 0 mm
07:07 11 °C 8.2 °C 1022.9 hPa Calm     83 % 0 mm
07:12 10.9 °C 8.1 °C 1022.9 hPa Calm     83 % 0 mm
07:17 10.8 °C 8 °C 1022.9 hPa Calm     83 % 0 mm
07:22 10.7 °C 7.9 °C 1022.9 hPa Calm     83 % 0 mm
07:27 10.6 °C 7.8 °C 1022.9 hPa Calm     83 % 0 mm
07:32 10.6 °C 7.8 °C 1023.2 hPa Calm     83 % 0 mm
07:37 10.5 °C 7.9 °C 1023.2 hPa Calm     84 % 0 mm
07:42 10.4 °C 7.8 °C 1023.2 hPa Calm     84 % 0 mm
07:53 10.7 °C 8.3 °C 1023.2 hPa Calm     85 % 0 mm
07:58 10.9 °C 8.4 °C 1023.2 hPa Calm     85 % 0 mm
08:03 11.6 °C 9 °C 1023.2 hPa Calm     84 % 0 mm
08:08 12 °C 9 °C 1023.6 hPa Calm     82 % 0 mm
08:13 12.3 °C 9.3 °C 1023.6 hPa Calm     82 % 0 mm
08:18 12.9 °C 9.7 °C 1023.6 hPa Calm     81 % 0 mm
08:27 13.7 °C 9.8 °C 1023.9 hPa Calm     77 % 0 mm
08:32 14.5 °C 10.1 °C 1023.9 hPa Calm     75 % 0 mm
08:37 15.5 °C 10.4 °C 1023.9 hPa Calm     72 % 0 mm
08:43 16.7 °C 10.6 °C 1023.6 hPa Calm     67 % 0 mm
08:48 17.3 °C 10.4 °C 1023.9 hPa Calm     64 % 0 mm
08:53 17.8 °C 10.7 °C 1023.9 hPa Calm     63 % 0 mm
08:58 18.6 °C 10.9 °C 1023.9 hPa Calm     61 % 0 mm
09:03 19.5 °C 11 °C 1023.6 hPa Calm     58 % 0 mm
09:08 20.3 °C 10.9 °C 1023.9 hPa Calm     55 % 0 mm
09:13 20.8 °C 10.6 °C 1023.9 hPa Calm     52 % 0 mm
09:18 21.6 °C 11.1 °C 1023.9 hPa Calm     51 % 0 mm
09:23 22.6 °C 10 °C 1023.9 hPa Calm     45 % 0 mm
09:28 23.3 °C 10.1 °C 1023.9 hPa Calm     43 % 0 mm
09:33 24 °C 9.6 °C 1023.9 hPa SE 0.3 km/h 3.2 km/h 40 % 0 mm
09:38 24.6 °C 8.9 °C 1023.9 hPa Calm     37 % 0 mm
09:43 25 °C 8.4 °C 1023.9 hPa Calm   1.9 km/h 35 % 0 mm
09:48 25.3 °C 8.7 °C 1023.9 hPa SSE 3.1 km/h 5.6 km/h 35 % 0 mm
09:53 25.5 °C 8.5 °C 1023.9 hPa SSE 1.9 km/h 3.7 km/h 34 % 0 mm
09:58 25.9 °C 8.8 °C 1023.9 hPa SSE 0.8 km/h 1.9 km/h 34 % 0 mm
10:03 26.3 °C 8.3 °C 1023.9 hPa SSE 1 km/h 1.9 km/h 32 % 0 mm
10:08 26.8 °C 8.7 °C 1023.9 hPa SSE 0.6 km/h 1.6 km/h 32 % 0 mm
10:13 27.1 °C 8.5 °C 1023.9 hPa Calm     31 % 0 mm
10:18 27.4 °C 8.3 °C 1023.9 hPa SSE 4.7 km/h 7.4 km/h 30 % 0 mm
10:23 27.5 °C 8.4 °C 1023.9 hPa SSE 3.9 km/h 9.3 km/h 30 % 0 mm
10:28 27.6 °C 7.4 °C 1023.6 hPa SSE 0.6 km/h 5.6 km/h 28 % 0 mm
10:33 27.9 °C 7.7 °C 1023.6 hPa SSE 1.6 km/h 3.2 km/h 28 % 0 mm
10:38 28.2 °C 7.4 °C 1023.6 hPa SSE 4.2 km/h 9.3 km/h 27 % 0 mm
10:43 28.3 °C 6.9 °C 1023.6 hPa ESE 8.7 km/h 12.9 km/h 26 % 0 mm
10:48 28.4 °C 7.1 °C 1023.6 hPa ENE 6.6 km/h 9.3 km/h 26 % 0 mm
10:53 28.6 °C 7.7 °C 1023.6 hPa NE 5.8 km/h 8 km/h 27 % 0 mm
10:58 28.6 °C 7.7 °C 1023.6 hPa North 8.4 km/h 11.1 km/h 27 % 0 mm
11:03 28.3 °C 7.6 °C 1023.6 hPa NNW 6.3 km/h 9.3 km/h 27 % 0 mm
11:08 28.5 °C 7.7 °C 1023.6 hPa NNW 7.4 km/h 11.1 km/h 27 % 0 mm
11:13 28.7 °C 7.3 °C 1023.6 hPa NNW 6.1 km/h 6.1 km/h 26 % 0 mm
11:18 29.2 °C 7.7 °C 1023.6 hPa North 6.9 km/h 9.7 km/h 26 % 0 mm
11:23 29.1 °C 7.1 °C 1023.6 hPa NNE 6.9 km/h 14.8 km/h 25 % 0 mm
11:28 29 °C 6.4 °C 1023.6 hPa NNE 4.2 km/h 7.4 km/h 24 % 0 mm
11:33 29.1 °C 7 °C 1023.2 hPa NNE 6.3 km/h 11.1 km/h 25 % 0 mm
11:38 29.2 °C 7.2 °C 1023.2 hPa NNE 4 km/h 5.6 km/h 25 % 0 mm
11:43 29.4 °C 7.3 °C 1023.2 hPa NNW 7.4 km/h 14.5 km/h 25 % 0 mm
11:48 29.3 °C 7.2 °C 1023.2 hPa NNW 10.8 km/h 14.5 km/h 25 % 0 mm
11:53 29.1 °C 7 °C 1023.2 hPa NNW 6.8 km/h 6.8 km/h 25 % 0 mm
11:59 29.3 °C 7.2 °C 1023.2 hPa NW 7.9 km/h 13 km/h 25 % 0 mm
12:04 29.3 °C 7.2 °C 1023.2 hPa NW 3.9 km/h 5.6 km/h 25 % 0 mm
12:08 29.4 °C 7.3 °C 1023.2 hPa NW 2.6 km/h 7.4 km/h 25 % 0 mm
12:14 30.1 °C 7.3 °C 1023.2 hPa NW 1 km/h 5.6 km/h 24 % 0 mm
12:19 30.1 °C 7.3 °C 1022.9 hPa North 0.8 km/h 5.6 km/h 24 % 0 mm
12:24 30.2 °C 7.4 °C 1022.9 hPa NNW 2.9 km/h 11.1 km/h 24 % 0 mm
12:29 30.2 °C 7.4 °C 1022.9 hPa NE 7.9 km/h 9.3 km/h 24 % 0 mm
12:34 30.7 °C 7.8 °C 1022.9 hPa NE 2.9 km/h 7.4 km/h 24 % 0 mm
12:39 31.1 °C 7.6 °C 1022.6 hPa North 3.9 km/h 5.6 km/h 23 % 0 mm
12:44 31.2 °C 7.6 °C 1022.6 hPa North 3.9 km/h 7.4 km/h 23 % 0 mm
12:49 31.1 °C 7.6 °C 1022.6 hPa North 6.4 km/h 9.3 km/h 23 % 0 mm
12:54 31.2 °C 7.6 °C 1022.6 hPa NNW 7.7 km/h 11.1 km/h 23 % 0 mm
12:59 30.6 °C 7.1 °C 1022.6 hPa North 6.4 km/h 9.3 km/h 23 % 0 mm
13:04 30.4 °C 7 °C 1022.6 hPa NNW 3.4 km/h 5.6 km/h 23 % 0 mm
13:09 30.4 °C 6.9 °C 1022.6 hPa NNW 6.3 km/h 7.4 km/h 23 % 0 mm
13:14 30.4 °C 7.6 °C 1022.6 hPa NW 5 km/h 9.7 km/h 24 % 0 mm
13:19 30.7 °C 7.8 °C 1022.2 hPa West 10.8 km/h 24.1 km/h 24 % 0 mm
13:24 30.6 °C 7.1 °C 1022.2 hPa West 6.1 km/h 11.1 km/h 23 % 0 mm
13:29 30.5 °C 7 °C 1022.2 hPa WSW 10.9 km/h 13 km/h 23 % 0 mm
13:34 30.6 °C 7.1 °C 1022.2 hPa WSW 6.8 km/h 9.3 km/h 23 % 0 mm
13:39 30.8 °C 7.3 °C 1022.2 hPa WSW 6.4 km/h 11.1 km/h 23 % 0 mm
13:44 31 °C 6.8 °C 1022.2 hPa West 9.5 km/h 11.1 km/h 22 % 0 mm
13:49 31 °C 7.4 °C 1021.9 hPa West 4.8 km/h 7.4 km/h 23 % 0 mm
13:54 30.9 °C 6.7 °C 1021.9 hPa WSW 1.3 km/h 5.6 km/h 22 % 0 mm
13:59 31.1 °C 6.9 °C 1021.9 hPa WSW 4.2 km/h 5.6 km/h 22 % 0 mm
14:04 31.3 °C 7.1 °C 1021.9 hPa SW 5.1 km/h 7.4 km/h 22 % 0 mm
14:09 31.5 °C 7.2 °C 1021.6 hPa WNW 12.2 km/h 18.5 km/h 22 % 0 mm
14:14 31.6 °C 6.6 °C 1021.6 hPa WNW 9.7 km/h 14.8 km/h 21 % 0 mm
14:19 31.6 °C 6.6 °C 1021.6 hPa West 3.2 km/h 5.6 km/h 21 % 0 mm
14:24 31.9 °C 6.2 °C 1021.6 hPa West 3.9 km/h 9.3 km/h 20 % 0 mm
14:29 31.8 °C 6.8 °C 1021.6 hPa West 6.9 km/h 11.1 km/h 21 % 0 mm
14:34 31.8 °C 6.8 °C 1021.2 hPa West 1 km/h 4.8 km/h 21 % 0 mm
14:39 32.2 °C 6.4 °C 1021.2 hPa NNW 7.1 km/h 9.3 km/h 20 % 0 mm
14:44 32.3 °C 6.5 °C 1021.2 hPa North 6.8 km/h 9.3 km/h 20 % 0 mm
14:49 32.3 °C 6.4 °C 1021.2 hPa North 3.7 km/h 5.6 km/h 20 % 0 mm
14:54 32.1 °C 7 °C 1020.9 hPa NNE 2.7 km/h 5.6 km/h 21 % 0 mm
14:59 31.9 °C 6.2 °C 1020.9 hPa NNE 2.7 km/h 6.4 km/h 20 % 0 mm
15:04 32.1 °C 7.1 °C 1020.9 hPa NNE 3.9 km/h 7.4 km/h 21 % 0 mm
15:09 32.6 °C 6.7 °C 1020.9 hPa NNE 1.9 km/h 5.6 km/h 20 % 0 mm
15:14 32.7 °C 6.8 °C 1020.5 hPa NNE 4.2 km/h 5.6 km/h 20 % 0 mm
15:19 32.6 °C 6.7 °C 1020.5 hPa NNE 5.5 km/h 7.4 km/h 20 % 0 mm
15:24 32.6 °C 6.7 °C 1020.5 hPa NNE 4.2 km/h 5.6 km/h 20 % 0 mm
15:29 32.4 °C 6.6 °C 1020.5 hPa NNE 5.6 km/h 8 km/h 20 % 0 mm
15:34 32.4 °C 6.6 °C 1020.5 hPa NNE 2.1 km/h 3.7 km/h 20 % 0 mm
15:39 32.8 °C 6.9 °C 1020.5 hPa NNE 5.5 km/h 7.4 km/h 20 % 0 mm
15:44 32.9 °C 7 °C 1020.2 hPa South 10.8 km/h 13 km/h 20 % 0 mm
15:49 32.7 °C 6.8 °C 1020.2 hPa South 11.3 km/h 16.7 km/h 20 % 0 mm
15:54 32.4 °C 6.6 °C 1020.2 hPa South 9.2 km/h 13 km/h 20 % 0 mm
15:59 32.7 °C 6.1 °C 1020.2 hPa South 4.3 km/h 7.4 km/h 19 % 0 mm
16:04 32.9 °C 6.3 °C 1020.2 hPa SW 10.8 km/h 18.5 km/h 19 % 0 mm
16:09 32.6 °C 6 °C 1019.9 hPa WSW 4.7 km/h 9.3 km/h 19 % 0 mm
16:14 33 °C 7.1 °C 1019.9 hPa SW 6 km/h 11.1 km/h 20 % 0 mm
16:19 32.9 °C 6.3 °C 1019.9 hPa SSE 2.3 km/h 7.4 km/h 19 % 0 mm
16:24 33.1 °C 6.3 °C 1019.9 hPa South 9.2 km/h 11.1 km/h 19 % 0 mm
16:29 32.9 °C 6.3 °C 1019.9 hPa SSE 1 km/h 3.7 km/h 19 % 0 mm
16:34 32.9 °C 6.3 °C 1019.9 hPa SSE 10.5 km/h 14.8 km/h 19 % 0 mm
16:39 32.9 °C 6.3 °C 1019.9 hPa South 13.2 km/h 18.5 km/h 19 % 0 mm
16:44 32.8 °C 6.1 °C 1019.5 hPa South 8 km/h 11.1 km/h 19 % 0 mm
16:49 32.6 °C 6 °C 1019.5 hPa South 13.5 km/h 18.5 km/h 19 % 0 mm
16:54 32.4 °C 5.8 °C 1019.5 hPa South 5.5 km/h 9.3 km/h 19 % 0 mm
16:59 32.6 °C 5.9 °C 1019.5 hPa South 6.1 km/h 9.3 km/h 19 % 0 mm
17:04 32.9 °C 6.3 °C 1019.5 hPa South 3.9 km/h 8 km/h 19 % 0 mm
17:09 33.1 °C 6.4 °C 1019.5 hPa SSW 7.9 km/h 9.3 km/h 19 % 0 mm
17:14 33.1 °C 6.4 °C 1019.5 hPa SSW 6.4 km/h 9.3 km/h 19 % 0 mm
17:19 33.2 °C 5.7 °C 1019.5 hPa SSW 3.5 km/h 11.1 km/h 18 % 0 mm
17:24 33.1 °C 6.3 °C 1019.5 hPa SSW 5.1 km/h 9.3 km/h 19 % 0 mm
17:29 33.1 °C 5.6 °C 1019.5 hPa SSW 3.9 km/h 5.6 km/h 18 % 0 mm
17:34 33.1 °C 5.6 °C 1019.5 hPa South 5.8 km/h 11.3 km/h 18 % 0 mm
17:39 32.9 °C 5.5 °C 1019.5 hPa South 2.1 km/h 4.8 km/h 18 % 0 mm
17:44 33 °C 5.5 °C 1019.5 hPa South 7.4 km/h 13 km/h 18 % 0 mm
17:49 33 °C 5.5 °C 1019.5 hPa South 3.2 km/h 7.4 km/h 18 % 0 mm
17:54 33.1 °C 5.6 °C 1019.5 hPa South 7.9 km/h 11.1 km/h 18 % 0 mm
17:59 33.1 °C 5.6 °C 1019.5 hPa Calm     18 % 0 mm
18:04 33.6 °C 5.9 °C 1019.5 hPa South 4.3 km/h 6.4 km/h 18 % 0 mm
18:09 33.6 °C 5.2 °C 1019.5 hPa South 3.1 km/h 6.4 km/h 17 % 0 mm
18:14 33.3 °C 5.8 °C 1019.5 hPa South 6.4 km/h 16.1 km/h 18 % 0 mm
18:19 32.9 °C 6.2 °C 1019.5 hPa SSW 6.1 km/h 7.4 km/h 19 % 0 mm
18:24 32.7 °C 6.1 °C 1019.5 hPa South 5.1 km/h 7.4 km/h 19 % 0 mm
18:29 32.6 °C 6 °C 1019.5 hPa South 0.6 km/h 3.7 km/h 19 % 0 mm
18:34 32.7 °C 6.1 °C 1019.5 hPa South 6 km/h 8 km/h 19 % 0 mm
18:39 32.5 °C 5.9 °C 1019.5 hPa South 3.1 km/h 6.4 km/h 19 % 0 mm
18:44 32.4 °C 6.6 °C 1019.5 hPa South 5.5 km/h 9.7 km/h 20 % 0 mm
18:49 32.3 °C 6.4 °C 1019.5 hPa South 5.1 km/h 11.1 km/h 20 % 0 mm
18:54 32.1 °C 6.3 °C 1019.5 hPa South 4 km/h 7.4 km/h 20 % 0 mm
18:59 32 °C 6.2 °C 1019.5 hPa South 10 km/h 11.1 km/h 20 % 0 mm
19:04 31.8 °C 6.1 °C 1019.5 hPa South 4 km/h 11.1 km/h 20 % 0 mm
19:09 31.7 °C 6 °C 1019.5 hPa South 2.3 km/h 5.6 km/h 20 % 0 mm
19:14 31.7 °C 5.9 °C 1019.5 hPa South 7.9 km/h 11.1 km/h 20 % 0 mm
19:19 31.5 °C 6.5 °C 1019.5 hPa South 1.4 km/h 5.6 km/h 21 % 0 mm
19:24 31.3 °C 6.4 °C 1019.5 hPa South 3.4 km/h 11.1 km/h 21 % 0 mm
19:29 31.1 °C 6.2 °C 1019.9 hPa South 6.3 km/h 7.4 km/h 21 % 0 mm
19:34 30.9 °C 6.7 °C 1019.9 hPa South 1.6 km/h 3.7 km/h 22 % 0 mm
19:39 30.6 °C 6.4 °C 1019.9 hPa South 3.9 km/h 5.6 km/h 22 % 0 mm
19:44 30.3 °C 6.2 °C 1019.9 hPa South 0.5 km/h 7.4 km/h 22 % 0 mm
19:49 29.9 °C 6.6 °C 1019.9 hPa South 0.6 km/h 1.9 km/h 23 % 0 mm
19:54 29.6 °C 6.9 °C 1019.9 hPa South 0.6 km/h 3.7 km/h 24 % 0 mm
19:59 29.2 °C 6.6 °C 1019.9 hPa South 1.3 km/h 3.7 km/h 24 % 0 mm
20:04 28.7 °C 6.1 °C 1020.2 hPa South 5.6 km/h 8 km/h 24 % 0 mm
20:09 28.1 °C 6.2 °C 1020.2 hPa South 8.4 km/h 18.5 km/h 25 % 0 mm
20:14 27.9 °C 6.1 °C 1020.2 hPa SSW 14.2 km/h 25.9 km/h 25 % 0 mm
20:19 27.7 °C 6.4 °C 1020.5 hPa South 7.2 km/h 16.7 km/h 26 % 0 mm
20:24 27.4 °C 6.2 °C 1020.5 hPa SSW 10.3 km/h 16.7 km/h 26 % 0 mm
20:29 27.2 °C 6.1 °C 1020.5 hPa SSW 12.1 km/h 14.8 km/h 26 % 0 mm
20:34 27 °C 5.8 °C 1020.5 hPa South 11.1 km/h 22.2 km/h 26 % 0 mm
20:39 26.7 °C 6.2 °C 1020.5 hPa SSW 6.9 km/h 16.7 km/h 27 % 0 mm
20:44 26.5 °C 6.5 °C 1020.9 hPa SSW 14.5 km/h 22.2 km/h 28 % 0 mm
20:49 26.3 °C 6.8 °C 1020.9 hPa SSW 9.7 km/h 18.5 km/h 29 % 0 mm
20:54 26.1 °C 7.6 °C 1020.9 hPa SSW 9.2 km/h 9.3 km/h 31 % 0 mm
20:59 25.8 °C 8.3 °C 1020.9 hPa SSW 7.6 km/h 13 km/h 33 % 0 mm
21:04 25.6 °C 9 °C 1020.9 hPa South 6.1 km/h 13 km/h 35 % 0 mm
21:09 25.4 °C 9.3 °C 1021.2 hPa South 7.6 km/h 14.8 km/h 36 % 0 mm
21:14 25.2 °C 9.5 °C 1021.2 hPa South 9.8 km/h 11.1 km/h 37 % 0 mm
21:20 24.8 °C 9.6 °C 1021.2 hPa South 7.6 km/h 13 km/h 38 % 0 mm
21:25 24.6 °C 9.3 °C 1021.6 hPa South 3.4 km/h 7.4 km/h 38 % 0 mm
21:30 24.4 °C 9.6 °C 1021.6 hPa South 6.3 km/h 11.1 km/h 39 % 0 mm
21:35 24.2 °C 9.3 °C 1021.6 hPa South 6.1 km/h 7.4 km/h 39 % 0 mm
21:40 24 °C 9.6 °C 1021.6 hPa North 4.7 km/h 6.4 km/h 40 % 0 mm
21:45 23.8 °C 9.4 °C 1021.6 hPa South 6.3 km/h 9.3 km/h 40 % 0 mm
21:50 23.6 °C 9.2 °C 1021.6 hPa South 7.6 km/h 11.1 km/h 40 % 0 mm
21:55 23.3 °C 9.3 °C 1021.6 hPa South 8.5 km/h 11.1 km/h 41 % 0 mm
22:00 23.2 °C 9.2 °C 1021.6 hPa South 5 km/h 7.4 km/h 41 % 0 mm
22:05 23 °C 9.1 °C 1021.6 hPa South 6 km/h 7.4 km/h 41 % 0 mm
22:10 22.8 °C 8.9 °C 1021.6 hPa South 5 km/h 9.3 km/h 41 % 0 mm
22:15 22.5 °C 8.9 °C 1021.6 hPa South 4.8 km/h 9.3 km/h 42 % 0 mm
22:20 22.3 °C 8.7 °C 1021.6 hPa South 6 km/h 9.7 km/h 42 % 0 mm
22:25 22.1 °C 8.9 °C 1021.9 hPa South 4.2 km/h 7.4 km/h 43 % 0 mm
22:30 21.9 °C 8.7 °C 1021.9 hPa South 4.5 km/h 9.3 km/h 43 % 0 mm
22:35 21.7 °C 8.6 °C 1021.9 hPa South 3.7 km/h 7.4 km/h 43 % 0 mm
22:40 21.6 °C 8.5 °C 1021.9 hPa South 4.3 km/h 6.4 km/h 43 % 0 mm
22:45 21.6 °C 8.5 °C 1021.9 hPa South 3.7 km/h 5.6 km/h 43 % 0 mm
22:50 21.6 °C 8.2 °C 1021.9 hPa South 1.1 km/h 3.7 km/h 42 % 0 mm
22:55 21.4 °C 8 °C 1021.9 hPa South 1.6 km/h 3.7 km/h 42 % 0 mm
23:00 21.4 °C 7.9 °C 1021.9 hPa South 5.6 km/h 5.6 km/h 42 % 0 mm
23:05 21.3 °C 7.9 °C 1021.9 hPa South 4.5 km/h 6.4 km/h 42 % 0 mm
23:10 21.3 °C 7.5 °C 1021.9 hPa North 2.4 km/h 5.6 km/h 41 % 0 mm
23:15 21.2 °C 7.4 °C 1021.9 hPa South 3.7 km/h 5.6 km/h 41 % 0 mm
23:20 21.1 °C 7.3 °C 1021.9 hPa Calm     41 % 0 mm
23:25 21 °C 7.2 °C 1021.9 hPa Calm     41 % 0 mm
23:30 20.9 °C 7.2 °C 1021.9 hPa South 0.5 km/h 3.7 km/h 41 % 0 mm
23:35 20.8 °C 6.7 °C 1021.9 hPa South 0.3 km/h 1.9 km/h 40 % 0 mm
23:40 20.6 °C 6.9 °C 1021.9 hPa Calm     41 % 0 mm
23:45 20.5 °C 6.8 °C 1021.9 hPa Calm     41 % 0 mm
23:50 20.4 °C 6.7 °C 1021.9 hPa Calm     41 % 0 mm
23:55 20.2 °C 6.6 °C 1021.9 hPa South 1.8 km/h 3.7 km/h 41 % 0 mm
Ararat Weather
Compliments of Weather Underground - 2.25 mb
Click here to send mail.


ABOUT

Live weather data from Ararat, Victoria, Australia, 3377
Data uploaded from Cumulus every 5 minutes to Weather Underground.
This site then downloads the raw data for formatting and display.
Metric and imperial data can be displayed. Graphs and historical data available.
Includes Sun and Moon times and rain image live from BOM.

Check out Ararat Weather on Facebook, Twitter and Google +

Help support ongoing costs by checking out the ads





Follow @AraratWeather